Regional Weather Roundup
Issued by NWS Goodland, KS

Home | Current Version | Previous Version | Graphics & Text | Print | Product List | Glossary On
Versions: 1 2 3 4 5 6 7 8 9 10 11 12 13 14 15 16 17 18 19 20 21 22 23 24 25 26 27 28 29 30 31 32 33 34 35 36 37 38 39 40 41 42 43 44 45 46 47 48 49 50
000
ASUS43 KGLD 301108
RWRGLD

GOODLAND FORECAST AREA HOURLY WEATHER ROUNDUP
NATIONAL WEATHER SERVICE GOODLAND KS
500 AM MDT SAT APR 30 2016

...OFFICIAL OBSERVATIONS...

CITY           SKY/WX    TMP DP  RH WIND       PRES   REMARKS
GOODLAND KS    CLOUDY    32  32 100 N14       29.78F FOG
HILL CITY KS   LGT RAIN  42  41  96 NW9       29.74F FOG
IMPERIAL NEB   LGT SNOW  33  32  96 N15       29.82S FOG
MCCOOK NEB     CLOUDY    36  34  92 N14       29.78F FOG
AKRON CO       SNOW      30  29  96 N14       29.83S VSB 1/2 WCI  19
BURLINGTON CO  CLOUDY    32  29  88 N14       29.80S
LIMON CO       LGT SNOW  30  29  96 NW17      29.82S FOG     WCI  18
$$

...UNOFFICIAL OBSERVATIONS...

CITY           SKY/WX    TMP DP  RH WIND       PRES   REMARKS
COLBY KS       CLOUDY    34  34 100 NW15      29.79S
GOVE KS          N/A     37  32  82 MISG        N/A
LENORA KS        N/A     39  32  76 MISG        N/A
NORTON KS      DRIZZLE   39  36  87 NW14      29.74S
SHARON SPRINGS   N/A     34  32  93 N13G20      N/A
TRIBUNE KS     CLOUDY    36  34  93 NW14      29.81F
KIT CARSON CO    N/A     31  29  91 MISG        N/A
YUMA CO          N/A     32  32  99 CALM        N/A
$$




USA.gov is the U.S. government's official web portal to all federal, state and local government web resources and services.